Starlink 31500

operational
NORAD ID: 59305 Int'l Des: 2024-056 Owner: SPXS Country: US Constellation: starlink
LEOCIRCULAR

About Starlink 31500

Description loading...

Live Position

Loading 3D Globe...

Upcoming Passes

Altitude History

Altitude vs Time

uPlot chart will show altitude changes over time

Two-Line Element Set

1 59305U 24056K 25350.25672686 .00003327 00000-0 13036-3 0 9997
2 59305 43.0000 341.9521 0001733 266.7034 93.3619 15.27580173 98397
Epoch: Dec 16, 2025 • Age: 16 hours

Current Status

Altitude 487.1 km
Velocity 7.63 km/s
Sub-Earth Point 42.10°N, 6.1°W
Launch Date Mar 24, 2024
Age 1.7 years
Type internet

Technical Details

Classification Payload
Mass 730.00 kg
Dry Mass 700.00 kg
Total Mass 730.00 kg
Length 0.30 m
Diameter 4.10 m
Span 29.00 m
Shape Box + pan
Manufacturer SPXS
Bus Type Starlink V2M
Phase Status In Orbit
Owner/State SPXS/US

Large Constellations

Loading constellations...